Location: East Irvine
(33.6759°N, 117.7598°W)
Time: 00:38:59
(UTC+00:00)

Cosmos 1812 - Pass Details

Date: 15 November 2025
Orbit: 342 x 352 km, 82.5° (Epoch: 07 December)

Event Time Altitude Azimuth Distance (km) Brightness Sun altitude
Rises 01:07:37 0° 148° (SSE) 2,239 5.8 -4.6°
Reaches altitude 10° 01:10:24 10° 119° (ESE) 1,389 4.5 -5.1°
Maximum altitude 01:11:52 13° 89° (E) 1,226 4.0 -5.4°
Drops below altitude 10° 01:13:20 10° 60° (ENE) 1,388 4.2 -5.7°
Enters shadow 01:14:55 - 40° (NE) 1,823 5.0 -6.0°
